Weather History for Campo, CA

Change the Weather History Date:

Thursday, December 13, 2012

  Actual Average Record
Temperature  
Mean Temperature 47 °F 47 °F  
Max Temperature 50 °F 63 °F 80 °F (1988)
Min Temperature 44 °F 32 °F 20 °F (1979)
Degree Days  
Heating Degree Days 18 18  
Month to date heating degree days 160 220  
Since 1 July heating degree days 589 790  
Cooling Degree Days 0 0  
Month to date cooling degree days 0 0  
Year to date cooling degree days 942 841  
Moisture  
Dew Point 41 °F    
Average Humidity 76    
Maximum Humidity 86    
Minimum Humidity 66    
Precipitation  
Precipitation 0.55 in 0.06 in 0.71 in (2012)
Month to date precipitation 0.58 0.85  
Year to date precipitation 8.82 14.31  
Since 1 July precipitation 2.77 4.16  
Snow  
Snow 0.00 in - - ()
Month to date snowfall 0.0  
Year to date snowfall 0.0  
Since 1 July snowfall 0.0  
Snow Depth 0.00 in    
Sea Level Pressure  
Sea Level Pressure 29.72 in    
Wind  
Wind Speed 6 mph (SW)    
Max Wind Speed 17 mph    
Max Gust Speed 26 mph    
T = Trace of Precipitation, MM = Missing Value Source: NWS Daily Summary

Daily Weather History Graph

Daily Weather History Graph

Search for Another Location

Airport:

Trip Planner

Search our weather history database for the weather conditions in past years. The results will help you decide how hot, cold, wet, or windy it might be!

Date:

Astronomy

Dec. 13, 2012 Rise Set
Actual Time 6:39 AM PST 4:41 PM PST
Civil Twilight 6:12 AM PST 5:08 PM PST
Nautical Twilight 5:41 AM PST 5:39 PM PST
Astronomical Twilight 5:11 AM PST 6:09 PM PST
Moon 6:53 AM PST (12/13) 5:27 PM PST (12/13)
Length of Visible Light 10h 56m
Length of Day
10h 01m
New Moon, 0% of the Moon is Illuminated
Dec 13
New Moon
Dec 19
First Quarter
Dec 28
Full
Jan 4
Last Quarter
Jan 11
New

Hourly Weather History & Observations

Time (PST) Temp. Windchill Dew Point Humidity Pressure Visibility Wind Dir Wind Speed Gust Speed Precip Events Conditions
12:52 AM 50.0 °F - 41.0 °F 71% 29.78 in - SSW 9.2 mph - N/A   Unknown
1:52 AM 50.0 °F - 41.0 °F 71% 29.77 in - SSW 13.8 mph - N/A   Unknown
2:52 AM 50.0 °F - 39.9 °F 68% 29.76 in - South 12.7 mph - N/A   Unknown
3:52 AM 48.9 °F - 39.9 °F 71% 29.74 in - SW 6.9 mph - N/A   Unknown
4:52 AM 50.0 °F - 39.0 °F 66% 29.74 in - South 13.8 mph - N/A   Unknown
5:52 AM 46.9 °F - 39.0 °F 74% 29.74 in - Calm Calm - N/A   Unknown
6:52 AM 46.0 °F - 39.0 °F 76% 29.75 in - Calm Calm - N/A   Unknown
7:52 AM 48.9 °F - 41.0 °F 74% 29.75 in - South 5.8 mph - N/A   Unknown
8:52 AM 48.0 °F - 43.0 °F 83% 29.76 in - Calm Calm - 0.06 in   Unknown
9:52 AM 48.0 °F - 44.1 °F 86% 29.76 in - SW 3.5 mph - 0.04 in   Unknown
10:52 AM 48.9 °F - 44.1 °F 83% 29.75 in - SW 9.2 mph 17.3 mph 0.03 in   Unknown
11:52 AM 48.0 °F - 45.0 °F 89% 29.73 in - South 4.6 mph - 0.15 in   Unknown
12:52 PM 48.0 °F - 44.1 °F 86% 29.70 in - Calm Calm - 0.09 in   Unknown
1:52 PM 48.0 °F - 44.1 °F 86% 29.67 in - Calm Calm - 0.05 in   Unknown
2:52 PM 48.0 °F - 44.1 °F 86% 29.67 in - Calm Calm - 0.06 in   Unknown
4:52 PM 46.0 °F 42.5 °F 44.1 °F 93% 29.67 in - SW 6.9 mph - 0.05 in   Unknown
5:52 PM 45.0 °F 40.6 °F 43.0 °F 93% 29.67 in - SW 8.1 mph - 0.11 in   Unknown
6:52 PM 45.0 °F 38.9 °F 41.0 °F 86% 29.67 in - West 12.7 mph - 0.01 in   Unknown
7:52 PM 44.1 °F 38.1 °F 39.0 °F 82% 29.67 in - West 11.5 mph 16.1 mph N/A   Unknown
8:52 PM 44.1 °F 39.0 °F 39.0 °F 82% 29.68 in - West 9.2 mph - N/A   Unknown
9:52 PM 44.1 °F 37.4 °F 37.0 °F 76% 29.67 in - West 13.8 mph 23.0 mph N/A   Unknown
10:52 PM 43.0 °F 36.4 °F 37.0 °F 80% 29.68 in - West 12.7 mph 17.3 mph N/A   Unknown
11:52 PM 43.0 °F 37.2 °F 37.0 °F 80% 29.68 in - WSW 10.4 mph 18.4 mph N/A   Unknown